Location: Bathurst
(33.4193°S, 149.5775°E)
Time: 08:34:41
(UTC+10:00)

Vanguard 1 Rocket - Pass Details

Date: 21 June 2021
Orbit: 650 x 4226 km, 34.3° (Epoch: 02 August)

Event Time Altitude Azimuth Distance (km) Brightness Sun altitude
Rises 05:00:26 0° 338° (NNW) 8,248 12.2 -25.3°
Reaches altitude 10° 05:07:27 10° 348° (NNW) 7,389 12.0 -23.8°
Maximum altitude 05:27:47 30° 39° (NE) 5,450 11.8 -19.7°
Drops below altitude 10° 05:43:30 10° 91° (E) 5,841 12.6 -16.6°
Sets 05:47:59 0° 101° (E) 6,392 12.8 -15.7°
